owner,sensor,date,latitude,longitude,vertical_datum,direction_of_sea_water_velocity,sea_water_speed,upward_sea_water_velocity,qcFlag 
TABS,ioos:station:TABS:G:1,1997-12-01T00:00:00Z,29.5500,-93.4666,2.0,246.7154631,10.54917058,-99999.0,'11111222,11111222,99999999' 
TABS,ioos:station:TABS:G:1,1997-12-01T00:30:00Z,29.5500,-93.4666,2.0,227.4219139,12.54821501,-99999.0,'11111222,11111222,99999999' 
TABS,ioos:station:TABS:G:1,1997-12-01T01:00:00Z,29.5500,-93.4666,2.0,211.0648818,13.56555933,-99999.0,'11111222,11111222,99999999' 
TABS,ioos:station:TABS:G:1,1997-12-01T01:30:00Z,29.5500,-93.4666,2.0,220.1578879,12.48255182,-99999.0,'11111222,11111222,99999999' 
TABS,ioos:station:TABS:G:1,1997-12-01T02:00:00Z,29.5500,-93.4666,2.0,209.5046,14.21326493,-99999.0,'11111222,11111222,99999999' 
TABS,ioos:station:TABS:G:1,1997-12-01T02:30:00Z,29.5500,-93.4666,2.0,209.8051568,14.08291163,-99999.0,'11111222,11111222,99999999' 
TABS,ioos:station:TABS:G:1,1997-12-01T03:00:00Z,29.5500,-93.4666,2.0,213.988024,14.9188639,-99999.0,'11111222,11111222,99999999' 
TABS,ioos:station:TABS:G:1,1997-12-01T03:30:00Z,29.5500,-93.4666,2.0,232.8417589,12.33415583,-99999.0,'11111222,11111222,99999999' 
TABS,ioos:station:TABS:G:1,1997-12-01T04:00:00Z,29.5500,-93.4666,2.0,227.8337887,12.87094402,-99999.0,'11111222,11111222,99999999' 
TABS,ioos:station:TABS:G:1,1997-12-01T04:30:00Z,29.5500,-93.4666,2.0,239.3795153,13.15417804,-99999.0,'11111222,11111222,99999999' 
TABS,ioos:station:TABS:G:1,1997-12-01T05:00:00Z,29.5500,-93.4666,2.0,239.7090601,13.28348222,-99999.0,'11111222,11111222,99999999' 
TABS,ioos:station:TABS:G:1,1997-12-01T05:30:00Z,29.5500,-93.4666,2.0,246.0227312,16.14298919,-99999.0,'11111222,11111222,99999999' 
TABS,ioos:station:TABS:G:1,1997-12-01T06:00:00Z,29.5500,-93.4666,2.0,262.4796941,13.67763503,-99999.0,'11111222,11111222,99999999' 
TABS,ioos:station:TABS:G:1,1997-12-01T06:30:00Z,29.5500,-93.4666,2.0,273.5994343,14.17796177,-99999.0,'11111222,11111222,99999999' 
TABS,ioos:station:TABS:G:1,1997-12-01T07:00:00Z,29.5500,-93.4666,2.0,286.5133752,14.14333765,-99999.0,'11111222,11111222,99999999' 
TABS,ioos:station:TABS:G:1,1997-12-01T07:30:00Z,29.5500,-93.4666,2.0,257.7931008,22.56003989,-99999.0,'11111222,11111222,99999999' 
TABS,ioos:station:TABS:G:1,1997-12-01T08:00:00Z,29.5500,-93.4666,2.0,270.0004209,18.92,-99999.0,'11111222,11111222,99999999' 
TABS,ioos:station:TABS:G:1,1997-12-01T08:30:00Z,29.5500,-93.4666,2.0,298.6248113,13.06707695,-99999.0,'11111222,11111222,99999999' 
TABS,ioos:station:TABS:G:1,1997-12-01T09:00:00Z,29.5500,-93.4666,2.0,295.4566004,13.86621794,-99999.0,'11111222,11111222,99999999' 
TABS,ioos:station:TABS:G:1,1997-12-01T09:30:00Z,29.5500,-93.4666,2.0,297.1173398,14.39200125,-99999.0,'11111222,11111222,99999999' 
TABS,ioos:station:TABS:G:1,1997-12-01T10:00:00Z,29.5500,-93.4666,2.0,290.8729654,15.4648828,-99999.0,'11111222,11111222,99999999' 
TABS,ioos:station:TABS:G:1,1997-12-01T10:30:00Z,29.5500,-93.4666,2.0,292.5243383,15.16694432,-99999.0,'11111222,11111222,99999999' 
TABS,ioos:station:TABS:G:1,1997-12-01T11:00:00Z,29.5500,-93.4666,2.0,298.3345971,15.06486309,-99999.0,'11111222,11111222,99999999' 
TABS,ioos:station:TABS:G:1,1997-12-01T11:30:00Z,29.5500,-93.4666,2.0,294.8760001,15.9277274,-99999.0,'11111222,11111222,99999999' 
TABS,ioos:station:TABS:G:1,1997-12-01T12:00:00Z,29.5500,-93.4666,2.0,300.7858525,15.43494736,-99999.0,'11111222,11111222,99999999' 
TABS,ioos:station:TABS:G:1,1997-12-01T12:30:00Z,29.5500,-93.4666,2.0,308.4732504,15.80018354,-99999.0,'11111222,11111222,99999999' 
TABS,ioos:station:TABS:G:1,1997-12-01T13:00:00Z,29.5500,-93.4666,2.0,309.8252932,15.13011897,-99999.0,'11111222,11111222,99999999' 
TABS,ioos:station:TABS:G:1,1997-12-01T13:30:00Z,29.5500,-93.4666,2.0,314.18805,14.96388319,-99999.0,'11111222,11111222,99999999' 
TABS,ioos:station:TABS:G:1,1997-12-01T14:00:00Z,29.5500,-93.4666,2.0,312.2437653,15.29120008,-99999.0,'11111222,11111222,99999999' 
TABS,ioos:station:TABS:G:1,1997-12-01T14:30:00Z,29.5500,-93.4666,2.0,284.9756123,21.90390833,-99999.0,'11111222,11111222,99999999' 
TABS,ioos:station:TABS:G:1,1997-12-01T15:00:00Z,29.5500,-93.4666,2.0,289.160343,22.24207949,-99999.0,'11111222,11111222,99999999' 
TABS,ioos:station:TABS:G:1,1997-12-01T15:30:00Z,29.5500,-93.4666,2.0,279.889076,22.5347931,-99999.0,'11111222,11111222,99999999' 
TABS,ioos:station:TABS:G:1,1997-12-01T16:00:00Z,29.5500,-93.4666,2.0,222.7800339,5.477116029,-99999.0,'11133222,11111222,99999999' 
TABS,ioos:station:TABS:G:1,1997-12-01T16:30:00Z,29.5500,-93.4666,2.0,334.6741936,12.20283983,-99999.0,'11111222,11111222,99999999' 
TABS,ioos:station:TABS:G:1,1997-12-01T17:00:00Z,29.5500,-93.4666,2.0,340.3522306,13.2940325,-99999.0,'11111222,11111222,99999999' 
TABS,ioos:station:TABS:G:1,1997-12-01T17:30:00Z,29.5500,-93.4666,2.0,337.763152,14.16339296,-99999.0,'11111222,11111222,99999999' 
TABS,ioos:station:TABS:G:1,1997-12-01T18:00:00Z,29.5500,-93.4666,2.0,341.9422443,14.42029819,-99999.0,'11111222,11111222,99999999' 
TABS,ioos:station:TABS:G:1,1997-12-01T18:30:00Z,29.5500,-93.4666,2.0,340.5759963,16.11736951,-99999.0,'11111222,11111222,99999999' 
TABS,ioos:station:TABS:G:1,1997-12-01T19:00:00Z,29.5500,-93.4666,2.0,354.4779678,13.92462567,-99999.0,'11111222,11111222,99999999' 
TABS,ioos:station:TABS:G:1,1997-12-01T19:30:00Z,29.5500,-93.4666,2.0,353.3236111,14.10566198,-99999.0,'11111222,11111222,99999999' 
TABS,ioos:station:TABS:G:1,1997-12-01T20:00:00Z,29.5500,-93.4666,2.0,353.1251596,16.20653263,-99999.0,'11111222,11111222,99999999' 
TABS,ioos:station:TABS:G:1,1997-12-01T20:30:00Z,29.5500,-93.4666,2.0,359.4510677,15.65071883,-99999.0,'11111222,11144222,99999999' 
TABS,ioos:station:TABS:G:1,1997-12-01T21:00:00Z,29.5500,-93.4666,2.0,3.698451348,16.12357591,-99999.0,'11111222,11111222,99999999' 
TABS,ioos:station:TABS:G:1,1997-12-01T21:30:00Z,29.5500,-93.4666,2.0,7.606826116,15.78893917,-99999.0,'11111222,11111222,99999999' 
TABS,ioos:station:TABS:G:1,1997-12-01T22:00:00Z,29.5500,-93.4666,2.0,18.03163238,13.47163687,-99999.0,'11111222,11111222,99999999' 
TABS,ioos:station:TABS:G:1,1997-12-01T22:30:00Z,29.5500,-93.4666,2.0,37.94957069,9.447676963,-99999.0,'11133222,11111222,99999999' 
TABS,ioos:station:TABS:G:1,1997-12-01T23:00:00Z,29.5500,-93.4666,2.0,53.4932399,8.522171085,-99999.0,'11133222,11111222,99999999' 
TABS,ioos:station:TABS:G:1,1997-12-01T23:30:00Z,29.5500,-93.4666,2.0,93.08849677,8.352131464,-99999.0,'11133222,11111222,99999999' 
TABS,ioos:station:TABS:G:1,1997-12-02T00:00:00Z,29.5500,-93.4666,2.0,117.8271826,8.933023005,-99999.0,'11133222,11111222,99999999' 
TABS,ioos:station:TABS:G:1,1997-12-02T00:30:00Z,29.5500,-93.4666,2.0,158.503366,9.769570103,-99999.0,'11133222,11111222,99999999' 
TABS,ioos:station:TABS:G:1,1997-12-02T01:00:00Z,29.5500,-93.4666,2.0,127.598953,11.47292901,-99999.0,'11111222,11111222,99999999' 
TABS,ioos:station:TABS:G:1,1997-12-02T01:30:00Z,29.5500,-93.4666,2.0,175.7654881,10.15772612,-99999.0,'11111222,11111222,99999999' 
TABS,ioos:station:TABS:G:1,1997-12-02T02:00:00Z,29.5500,-93.4666,2.0,51.52700236,12.93906488,-99999.0,'11111222,11111222,99999999' 
TABS,ioos:station:TABS:G:1,1997-12-02T02:30:00Z,29.5500,-93.4666,2.0,345.4201093,11.24203273,-99999.0,'11111222,11111222,99999999' 
TABS,ioos:station:TABS:G:1,1997-12-02T03:00:00Z,29.5500,-93.4666,2.0,348.9980324,11.68476786,-99999.0,'11111222,11111222,99999999' 
TABS,ioos:station:TABS:G:1,1997-12-02T03:30:00Z,29.5500,-93.4666,2.0,327.0390082,9.594316026,-99999.0,'11133222,11111222,99999999' 
TABS,ioos:station:TABS:G:1,1997-12-02T04:00:00Z,29.5500,-93.4666,2.0,343.4063166,8.858950276,-99999.0,'11133222,11111222,99999999' 
TABS,ioos:station:TABS:G:1,1997-12-02T04:30:00Z,29.5500,-93.4666,2.0,356.9117137,8.352131464,-99999.0,'11133222,11111222,99999999' 
TABS,ioos:station:TABS:G:1,1997-12-02T05:00:00Z,29.5500,-93.4666,2.0,2.174949488,7.90569415,-99999.0,'11133222,11111222,99999999' 
TABS,ioos:station:TABS:G:1,1997-12-02T05:30:00Z,29.5500,-93.4666,2.0,325.6097412,9.755131983,-99999.0,'11133222,11111222,99999999' 
TABS,ioos:station:TABS:G:1,1997-12-02T06:00:00Z,29.5500,-93.4666,2.0,315.6052246,9.376758502,-99999.0,'11133222,11111222,99999999' 
TABS,ioos:station:TABS:G:1,1997-12-02T06:30:00Z,29.5500,-93.4666,2.0,308.5297042,10.29031584,-99999.0,'11111222,11111222,99999999' 
TABS,ioos:station:TABS:G:1,1997-12-02T07:00:00Z,29.5500,-93.4666,2.0,311.2032649,9.503162631,-99999.0,'11133222,11111222,99999999' 
TABS,ioos:station:TABS:G:1,1997-12-02T07:30:00Z,29.5500,-93.4666,2.0,304.3855236,10.28767223,-99999.0,'11111222,11111222,99999999' 
TABS,ioos:station:TABS:G:1,1997-12-02T08:00:00Z,29.5500,-93.4666,2.0,300.4708379,11.7532336,-99999.0,'11111222,11111222,99999999' 
TABS,ioos:station:TABS:G:1,1997-12-02T08:30:00Z,29.5500,-93.4666,2.0,302.2337019,11.45548777,-99999.0,'11111222,11111222,99999999' 
TABS,ioos:station:TABS:G:1,1997-12-02T09:00:00Z,29.5500,-93.4666,2.0,304.8709123,11.98129375,-99999.0,'11111222,11111222,99999999' 
TABS,ioos:station:TABS:G:1,1997-12-02T09:30:00Z,29.5500,-93.4666,2.0,300.2601073,12.42258025,-99999.0,'11111222,11111222,99999999' 
TABS,ioos:station:TABS:G:1,1997-12-02T10:00:00Z,29.5500,-93.4666,2.0,300.163035,12.75731163,-99999.0,'11111222,11111222,99999999' 
TABS,ioos:station:TABS:G:1,1997-12-02T10:30:00Z,29.5500,-93.4666,2.0,300.6124063,12.29325018,-99999.0,'11111222,11111222,99999999' 
TABS,ioos:station:TABS:G:1,1997-12-02T11:00:00Z,29.5500,-93.4666,2.0,295.086505,12.99588396,-99999.0,'11111222,11111222,99999999' 
TABS,ioos:station:TABS:G:1,1997-12-02T11:30:00Z,29.5500,-93.4666,2.0,297.7365377,13.12846145,-99999.0,'11111222,11111222,99999999' 
TABS,ioos:station:TABS:G:1,1997-12-02T12:00:00Z,29.5500,-93.4666,2.0,297.434923,13.26141018,-99999.0,'11111222,11111222,99999999' 
TABS,ioos:station:TABS:G:1,1997-12-02T12:30:00Z,29.5500,-93.4666,2.0,304.6052818,12.85404217,-99999.0,'11111222,11111222,99999999' 
TABS,ioos:station:TABS:G:1,1997-12-02T13:00:00Z,29.5500,-93.4666,2.0,297.3382044,14.58943453,-99999.0,'11111222,11111222,99999999' 
TABS,ioos:station:TABS:G:1,1997-12-02T13:30:00Z,29.5500,-93.4666,2.0,302.2518783,14.80406701,-99999.0,'11111222,11111222,99999999' 
TABS,ioos:station:TABS:G:1,1997-12-02T14:00:00Z,29.5500,-93.4666,2.0,303.1911833,14.9608322,-99999.0,'11111222,11111222,99999999' 
TABS,ioos:station:TABS:G:1,1997-12-02T14:30:00Z,29.5500,-93.4666,2.0,304.1588747,14.58632922,-99999.0,'11111222,11111222,99999999' 
TABS,ioos:station:TABS:G:1,1997-12-02T15:00:00Z,29.5500,-93.4666,2.0,309.1530739,16.51911015,-99999.0,'11111222,11111222,99999999' 
TABS,ioos:station:TABS:G:1,1997-12-02T15:30:00Z,29.5500,-93.4666,2.0,312.7795059,16.24029864,-99999.0,'11111222,11111222,99999999' 
TABS,ioos:station:TABS:G:1,1997-12-02T16:00:00Z,29.5500,-93.4666,2.0,319.1909118,17.32092665,-99999.0,'11111222,11111222,99999999' 
TABS,ioos:station:TABS:G:1,1997-12-02T16:30:00Z,29.5500,-93.4666,2.0,326.1592056,15.78404891,-99999.0,'11111222,11111222,99999999' 
TABS,ioos:station:TABS:G:1,1997-12-02T17:00:00Z,29.5500,-93.4666,2.0,322.734999,17.96842787,-99999.0,'11111222,11111222,99999999' 
TABS,ioos:station:TABS:G:1,1997-12-02T17:30:00Z,29.5500,-93.4666,2.0,319.9298912,19.66667486,-99999.0,'11111222,11111222,99999999' 
TABS,ioos:station:TABS:G:1,1997-12-02T18:00:00Z,29.5500,-93.4666,2.0,325.318224,19.38413011,-99999.0,'11111222,11111222,99999999' 
TABS,ioos:station:TABS:G:1,1997-12-02T18:30:00Z,29.5500,-93.4666,2.0,324.5428531,21.58255777,-99999.0,'11111222,11111222,99999999' 
TABS,ioos:station:TABS:G:1,1997-12-02T19:00:00Z,29.5500,-93.4666,2.0,326.506343,22.68737094,-99999.0,'11111222,11111222,99999999' 
TABS,ioos:station:TABS:G:1,1997-12-02T19:30:00Z,29.5500,-93.4666,2.0,325.9702146,21.03182826,-99999.0,'11111222,11111222,99999999' 
TABS,ioos:station:TABS:G:1,1997-12-02T20:00:00Z,29.5500,-93.4666,2.0,330.4171114,20.21526156,-99999.0,'11111222,11111222,99999999' 
TABS,ioos:station:TABS:G:1,1997-12-02T20:30:00Z,29.5500,-93.4666,2.0,331.6087065,18.80146803,-99999.0,'11111222,11111222,99999999' 
TABS,ioos:station:TABS:G:1,1997-12-02T21:00:00Z,29.5500,-93.4666,2.0,338.5591972,17.12516277,-99999.0,'11111222,11111222,99999999' 
TABS,ioos:station:TABS:G:1,1997-12-02T21:30:00Z,29.5500,-93.4666,2.0,332.3045331,16.99742628,-99999.0,'11111222,11111222,99999999' 
TABS,ioos:station:TABS:G:1,1997-12-02T22:00:00Z,29.5500,-93.4666,2.0,332.0943458,17.20007267,-99999.0,'11111222,11111222,99999999' 
TABS,ioos:station:TABS:G:1,1997-12-02T22:30:00Z,29.5500,-93.4666,2.0,338.0617813,13.97175723,-99999.0,'11111222,11111222,99999999' 
TABS,ioos:station:TABS:G:1,1997-12-02T23:00:00Z,29.5500,-93.4666,2.0,342.3555394,13.75721629,-99999.0,'11111222,11111222,99999999' 
TABS,ioos:station:TABS:G:1,1997-12-02T23:30:00Z,29.5500,-93.4666,2.0,350.9794572,12.3730352,-99999.0,'11111222,11111222,99999999' 
TABS,ioos:station:TABS:G:1,1997-12-03T00:00:00Z,29.5500,-93.4666,2.0,345.2516994,11.70567384,-99999.0,'11111222,11111222,99999999' 
TABS,ioos:station:TABS:G:1,1997-12-03T00:30:00Z,29.5500,-93.4666,2.0,343.2237354,11.36366138,-99999.0,'11111222,11111222,99999999' 
TABS,ioos:station:TABS:G:1,1997-12-03T01:00:00Z,29.5500,-93.4666,2.0,350.0248539,11.19930801,-99999.0,'11111222,11111222,99999999' 
TABS,ioos:station:TABS:G:1,1997-12-03T01:30:00Z,29.5500,-93.4666,2.0,344.3862079,13.30084584,-99999.0,'11111222,11111222,99999999' 
TABS,ioos:station:TABS:G:1,1997-12-03T02:00:00Z,29.5500,-93.4666,2.0,343.5198607,11.03328147,-99999.0,'11111222,11111222,99999999' 
TABS,ioos:station:TABS:G:1,1997-12-03T02:30:00Z,29.5500,-93.4666,2.0,339.0917243,10.8440675,-99999.0,'11111222,11111222,99999999' 
TABS,ioos:station:TABS:G:1,1997-12-03T03:00:00Z,29.5500,-93.4666,2.0,338.3179695,12.5047511,-99999.0,'11111222,11111222,99999999' 
TABS,ioos:station:TABS:G:1,1997-12-03T03:30:00Z,29.5500,-93.4666,2.0,333.4352214,12.99155495,-99999.0,'11111222,11111222,99999999' 
TABS,ioos:station:TABS:G:1,1997-12-03T04:00:00Z,29.5500,-93.4666,2.0,336.2461708,13.67883401,-99999.0,'11111222,11111222,99999999' 
TABS,ioos:station:TABS:G:1,1997-12-03T04:30:00Z,29.5500,-93.4666,2.0,333.4565844,11.99426947,-99999.0,'11111222,11111222,99999999' 
TABS,ioos:station:TABS:G:1,1997-12-03T05:00:00Z,29.5500,-93.4666,2.0,333.7732449,12.12864378,-99999.0,'11111222,11111222,99999999' 
TABS,ioos:station:TABS:G:1,1997-12-03T05:30:00Z,29.5500,-93.4666,2.0,341.1260922,11.96324789,-99999.0,'11111222,11111222,99999999' 
TABS,ioos:station:TABS:G:1,1997-12-03T06:00:00Z,29.5500,-93.4666,2.0,340.4491011,12.01261004,-99999.0,'11111222,11111222,99999999' 
TABS,ioos:station:TABS:G:1,1997-12-03T06:30:00Z,29.5500,-93.4666,2.0,329.0284486,12.16439477,-99999.0,'11111222,11111222,99999999' 
TABS,ioos:station:TABS:G:1,1997-12-03T07:00:00Z,29.5500,-93.4666,2.0,333.7392894,11.79766079,-99999.0,'11111222,11111222,99999999' 
TABS,ioos:station:TABS:G:1,1997-12-03T07:30:00Z,29.5500,-93.4666,2.0,334.3859277,12.39846765,-99999.0,'11111222,11111222,99999999' 
TABS,ioos:station:TABS:G:1,1997-12-03T08:00:00Z,29.5500,-93.4666,2.0,333.4119115,10.99251109,-99999.0,'11111222,11111222,99999999' 
TABS,ioos:station:TABS:G:1,1997-12-03T08:30:00Z,29.5500,-93.4666,2.0,327.1367426,11.53619088,-99999.0,'11111222,11111222,99999999' 
TABS,ioos:station:TABS:G:1,1997-12-03T09:00:00Z,29.5500,-93.4666,2.0,343.8411628,11.78561835,-99999.0,'11111222,11111222,99999999' 
TABS,ioos:station:TABS:G:1,1997-12-03T09:30:00Z,29.5500,-93.4666,2.0,335.4240097,11.46899298,-99999.0,'11111222,11111222,99999999' 
TABS,ioos:station:TABS:G:1,1997-12-03T10:00:00Z,29.5500,-93.4666,2.0,330.1726813,12.88722235,-99999.0,'11111222,11111222,99999999' 
TABS,ioos:station:TABS:G:1,1997-12-03T10:30:00Z,29.5500,-93.4666,2.0,322.582347,12.75458349,-99999.0,'11111222,11111222,99999999' 
TABS,ioos:station:TABS:G:1,1997-12-03T11:00:00Z,29.5500,-93.4666,2.0,311.6673953,12.77073608,-99999.0,'11111222,11111222,99999999' 
TABS,ioos:station:TABS:G:1,1997-12-03T11:30:00Z,29.5500,-93.4666,2.0,312.3695834,13.71110863,-99999.0,'11111222,11111222,99999999' 
TABS,ioos:station:TABS:G:1,1997-12-03T12:00:00Z,29.5500,-93.4666,2.0,311.9662831,10.01960578,-99999.0,'11111222,11111222,99999999' 
TABS,ioos:station:TABS:G:1,1997-12-03T12:30:00Z,29.5500,-93.4666,2.0,308.1881664,11.56505945,-99999.0,'11111222,11111222,99999999' 
TABS,ioos:station:TABS:G:1,1997-12-03T13:00:00Z,29.5500,-93.4666,2.0,289.3505147,14.84878783,-99999.0,'11111222,11111222,99999999' 
TABS,ioos:station:TABS:G:1,1997-12-03T13:30:00Z,29.5500,-93.4666,2.0,273.9747623,12.84088003,-99999.0,'11111222,11111222,99999999' 
TABS,ioos:station:TABS:G:1,1997-12-03T14:00:00Z,29.5500,-93.4666,2.0,287.0562821,11.69432768,-99999.0,'11111222,11111222,99999999' 
TABS,ioos:station:TABS:G:1,1997-12-03T14:30:00Z,29.5500,-93.4666,2.0,274.6768767,10.91634096,-99999.0,'11111222,11111222,99999999' 
TABS,ioos:station:TABS:G:1,1997-12-03T15:00:00Z,29.5500,-93.4666,2.0,278.5138711,13.10439621,-99999.0,'11111222,11111222,99999999' 
TABS,ioos:station:TABS:G:1,1997-12-03T15:30:00Z,29.5500,-93.4666,2.0,265.1056901,15.70726265,-99999.0,'11111222,11111222,99999999' 
TABS,ioos:station:TABS:G:1,1997-12-03T16:00:00Z,29.5500,-93.4666,2.0,270.0004209,16.69,-99999.0,'11111222,11111222,99999999' 
TABS,ioos:station:TABS:G:1,1997-12-03T16:30:00Z,29.5500,-93.4666,2.0,272.7706302,15.51813455,-99999.0,'11111222,11111222,99999999' 
TABS,ioos:station:TABS:G:1,1997-12-03T17:00:00Z,29.5500,-93.4666,2.0,275.7668852,16.32259783,-99999.0,'11111222,11111222,99999999' 
TABS,ioos:station:TABS:G:1,1997-12-03T17:30:00Z,29.5500,-93.4666,2.0,275.5627413,16.91966903,-99999.0,'11111222,11111222,99999999' 
TABS,ioos:station:TABS:G:1,1997-12-03T18:00:00Z,29.5500,-93.4666,2.0,279.7968521,16.63252837,-99999.0,'11111222,11111222,99999999' 
TABS,ioos:station:TABS:G:1,1997-12-03T18:30:00Z,29.5500,-93.4666,2.0,288.0932319,15.35945637,-99999.0,'11111222,11111222,99999999' 
TABS,ioos:station:TABS:G:1,1997-12-03T19:00:00Z,29.5500,-93.4666,2.0,296.3229268,14.79395823,-99999.0,'11111222,11111222,99999999' 
TABS,ioos:station:TABS:G:1,1997-12-03T19:30:00Z,29.5500,-93.4666,2.0,301.3691843,14.31191462,-99999.0,'11111222,11111222,99999999' 
TABS,ioos:station:TABS:G:1,1997-12-03T20:00:00Z,29.5500,-93.4666,2.0,315.9615618,12.64484875,-99999.0,'11111222,11111222,99999999' 
TABS,ioos:station:TABS:G:1,1997-12-03T20:30:00Z,29.5500,-93.4666,2.0,305.093336,13.48048219,-99999.0,'11111222,11111222,99999999' 
TABS,ioos:station:TABS:G:1,1997-12-03T21:00:00Z,29.5500,-93.4666,2.0,308.8420085,13.77615694,-99999.0,'11111222,11111222,99999999' 
TABS,ioos:station:TABS:G:1,1997-12-03T21:30:00Z,29.5500,-93.4666,2.0,302.4008975,13.06372458,-99999.0,'11111222,11111222,99999999' 
TABS,ioos:station:TABS:G:1,1997-12-03T22:00:00Z,29.5500,-93.4666,2.0,305.0462665,12.19017637,-99999.0,'11111222,11111222,99999999' 
TABS,ioos:station:TABS:G:1,1997-12-03T22:30:00Z,29.5500,-93.4666,2.0,303.3178469,11.94294771,-99999.0,'11111222,11111222,99999999' 
TABS,ioos:station:TABS:G:1,1997-12-03T23:00:00Z,29.5500,-93.4666,2.0,300.9467111,11.29832731,-99999.0,'11111222,11111222,99999999' 
TABS,ioos:station:TABS:G:1,1997-12-03T23:30:00Z,29.5500,-93.4666,2.0,296.2273865,12.12864378,-99999.0,'11111222,11111222,99999999' 
TABS,ioos:station:TABS:G:1,1997-12-04T00:00:00Z,29.5500,-93.4666,2.0,298.7539874,10.5395683,-99999.0,'11111222,11111222,99999999' 
TABS,ioos:station:TABS:G:1,1997-12-04T00:30:00Z,29.5500,-93.4666,2.0,299.5594096,11.47327329,-99999.0,'11111222,11111222,99999999' 
TABS,ioos:station:TABS:G:1,1997-12-04T01:00:00Z,29.5500,-93.4666,2.0,292.3184766,12.56094344,-99999.0,'11111222,11111222,99999999' 
TABS,ioos:station:TABS:G:1,1997-12-04T01:30:00Z,29.5500,-93.4666,2.0,286.262638,11.17720001,-99999.0,'11111222,11111222,99999999' 
TABS,ioos:station:TABS:G:1,1997-12-04T02:00:00Z,29.5500,-93.4666,2.0,134.9998948,5.062884553,-99999.0,'11133222,11111222,99999999' 
TABS,ioos:station:TABS:G:1,1997-12-04T02:30:00Z,29.5500,-93.4666,2.0,117.9076099,2.862953021,-99999.0,'11133222,11111222,99999999' 
TABS,ioos:station:TABS:G:1,1997-12-04T03:00:00Z,29.5500,-93.4666,2.0,114.1835557,4.735609781,-99999.0,'11133222,11111222,99999999' 
TABS,ioos:station:TABS:G:1,1997-12-04T03:30:00Z,29.5500,-93.4666,2.0,333.2816141,1.668112706,-99999.0,'11133222,11111222,99999999' 
TABS,ioos:station:TABS:G:1,1997-12-04T04:00:00Z,29.5500,-93.4666,2.0,288.7577264,7.867871377,-99999.0,'11133222,11111222,99999999' 
TABS,ioos:station:TABS:G:1,1997-12-04T04:30:00Z,29.5500,-93.4666,2.0,56.01391236,1.073359213,-99999.0,'11133222,11111222,99999999' 
TABS,ioos:station:TABS:G:1,1997-12-04T05:00:00Z,29.5500,-93.4666,2.0,306.6767484,9.476054031,-99999.0,'11133222,11111222,99999999' 
TABS,ioos:station:TABS:G:1,1997-12-04T05:30:00Z,29.5500,-93.4666,2.0,302.5855907,10.78815091,-99999.0,'11111222,11111222,99999999' 
TABS,ioos:station:TABS:G:1,1997-12-04T06:00:00Z,29.5500,-93.4666,2.0,215.0316255,17.64707908,-99999.0,'11111222,11111222,99999999' 
TABS,ioos:station:TABS:G:1,1997-12-04T06:30:00Z,29.5500,-93.4666,2.0,191.9054245,8.676646818,-99999.0,'11133222,11111222,99999999' 
TABS,ioos:station:TABS:G:1,1997-12-04T07:00:00Z,29.5500,-93.4666,2.0,216.1884431,15.14106998,-99999.0,'11111222,11111222,99999999' 
TABS,ioos:station:TABS:G:1,1997-12-04T07:30:00Z,29.5500,-93.4666,2.0,216.0426672,16.21368866,-99999.0,'11111222,11111222,99999999' 
TABS,ioos:station:TABS:G:1,1997-12-04T08:00:00Z,29.5500,-93.4666,2.0,211.7011451,15.58536814,-99999.0,'11111222,11111222,99999999' 
TABS,ioos:station:TABS:G:1,1997-12-04T08:30:00Z,29.5500,-93.4666,2.0,313.5586155,8.431381856,-99999.0,'11133222,11111222,99999999' 
TABS,ioos:station:TABS:G:1,1997-12-04T09:00:00Z,29.5500,-93.4666,2.0,20.77241657,5.893063719,-99999.0,'11133222,11111222,99999999' 
TABS,ioos:station:TABS:G:1,1997-12-04T09:30:00Z,29.5500,-93.4666,2.0,37.50051295,5.634341133,-99999.0,'11133222,11111222,99999999' 
TABS,ioos:station:TABS:G:1,1997-12-04T10:00:00Z,29.5500,-93.4666,2.0,101.2676837,5.322593353,-99999.0,'11133222,11111222,99999999' 
TABS,ioos:station:TABS:G:1,1997-12-04T10:30:00Z,29.5500,-93.4666,2.0,75.09255409,4.625689138,-99999.0,'11133222,11111222,99999999' 
TABS,ioos:station:TABS:G:1,1997-12-04T11:00:00Z,29.5500,-93.4666,2.0,30.99216081,3.476276744,-99999.0,'11133222,11111222,99999999' 
TABS,ioos:station:TABS:G:1,1997-12-04T11:30:00Z,29.5500,-93.4666,2.0,35.3732305,5.665933286,-99999.0,'11133222,11111222,99999999' 
TABS,ioos:station:TABS:G:1,1997-12-04T12:00:00Z,29.5500,-93.4666,2.0,57.17718488,5.497708614,-99999.0,'11133222,11111222,99999999' 
TABS,ioos:station:TABS:G:1,1997-12-04T12:30:00Z,29.5500,-93.4666,2.0,39.25145525,6.353487231,-99999.0,'11133222,11111222,99999999' 
TABS,ioos:station:TABS:G:1,1997-12-04T13:00:00Z,29.5500,-93.4666,2.0,325.4018045,5.248123474,-99999.0,'11133222,11111222,99999999' 
TABS,ioos:station:TABS:G:1,1997-12-04T13:30:00Z,29.5500,-93.4666,2.0,42.34122705,6.85924923,-99999.0,'11133222,11111222,99999999' 
TABS,ioos:station:TABS:G:1,1997-12-04T14:00:00Z,29.5500,-93.4666,2.0,51.81201707,6.25965654,-99999.0,'11133222,11111222,99999999' 
TABS,ioos:station:TABS:G:1,1997-12-04T14:30:00Z,29.5500,-93.4666,2.0,5.56340627,4.64186385,-99999.0,'11133222,11111222,99999999' 
TABS,ioos:station:TABS:G:1,1997-12-04T15:00:00Z,29.5500,-93.4666,2.0,36.88923572,5.964000335,-99999.0,'11133222,11111222,99999999' 
TABS,ioos:station:TABS:G:1,1997-12-04T15:30:00Z,29.5500,-93.4666,2.0,39.05088967,7.095139181,-99999.0,'11133222,11111222,99999999' 
TABS,ioos:station:TABS:G:1,1997-12-04T16:00:00Z,29.5500,-93.4666,2.0,330.2356892,7.211379896,-99999.0,'11133222,11111222,99999999' 
TABS,ioos:station:TABS:G:1,1997-12-04T16:30:00Z,29.5500,-93.4666,2.0,276.6796214,7.651934396,-99999.0,'11133222,11111222,99999999' 
TABS,ioos:station:TABS:G:1,1997-12-04T17:00:00Z,29.5500,-93.4666,2.0,207.7359064,13.12846145,-99999.0,'11111222,11111222,99999999' 
TABS,ioos:station:TABS:G:1,1997-12-04T17:30:00Z,29.5500,-93.4666,2.0,273.3407352,10.29749484,-99999.0,'11111222,11111222,99999999' 
TABS,ioos:station:TABS:G:1,1997-12-04T18:00:00Z,29.5500,-93.4666,2.0,239.6443562,5.006325998,-99999.0,'11133222,11111222,99999999' 